Weather History for Okinawa, Japan

Change the Weather History Date:

Thursday, November 29, 2012

  Actual Average Record
Temperature  
Mean Temperature 71 °F -  
Max Temperature 75 °F 68 °F 80 °F (1997)
Min Temperature 67 °F 57 °F 51 °F (2008)
Cooling Degree Days 6    
Growing Degree Days 21 (Base 50)    
Moisture  
Dew Point 69 °F    
Average Humidity 95    
Maximum Humidity 100    
Minimum Humidity 80    
Precipitation  
Precipitation 0.92 in - - ()
Sea Level Pressure  
Sea Level Pressure 29.94 in    
Wind  
Wind Speed 12 mph ()    
Max Wind Speed 21 mph    
Max Gust Speed 34 mph    
Visibility 7.2 miles    
Events Rain    
Averages and records for this station are not official NWS values.
T = Trace of Precipitation, MM = Missing Value Source: Averaged Metar Reports

Daily Weather History Graph

Daily Weather History Graph

Search for Another Location

Airport:

Trip Planner

Search our weather history database for the weather conditions in past years. The results will help you decide how hot, cold, wet, or windy it might be!

Date:

Astronomy

Nov. 29, 2012 Rise Set
Actual Time 6:58 AM JST 5:36 PM JST
Civil Twilight 6:33 AM JST 6:01 PM JST
Nautical Twilight 6:04 AM JST 6:29 PM JST
Astronomical Twilight 5:36 AM JST 6:57 PM JST
Moon 6:10 PM JST (11/29) 7:15 AM JST (11/29)
Length of Visible Light 11h 28m
Length of Day
10h 38m
Full, 100% of the Moon is Illuminated
Nov 29
Full
Dec 7
Last Quarter
Dec 13
New
Dec 20
First Quarter
Dec 28
Full

Hourly Weather History & Observations

Time (JST) Temp. Dew Point Humidity Pressure Visibility Wind Dir Wind Speed Gust Speed Precip Events Conditions
12:05 AM 69.8 °F 66.2 °F 88% 29.99 in 10.0 mi ESE 13.8 mph - N/A   Scattered Clouds
12:15 AM 69.8 °F 66.2 °F 88% 29.98 in 10.0 mi ESE 15.0 mph 23.0 mph N/A Rain Light Rain
12:23 AM 69.8 °F 66.2 °F 88% 29.98 in 10.0 mi SE 9.2 mph 23.0 mph N/A   Clear
12:26 AM 69.8 °F 66.2 °F 88% 29.98 in 10.0 mi SE 11.5 mph 19.6 mph N/A Rain Light Rain
12:48 AM 71.6 °F 66.2 °F 83% 29.99 in 10.0 mi ESE 12.7 mph - N/A   Clear
12:49 AM 71.6 °F 66.2 °F 83% 29.99 in 10.0 mi ESE 12.7 mph - N/A Rain Light Rain
12:55 AM 70.7 °F 66.4 °F 86% 29.99 in 10.0 mi SE 10.4 mph - 0.00 in Rain Light Rain
1:04 AM 69.8 °F 66.2 °F 88% 29.99 in 10.0 mi SE 6.9 mph - N/A   Partly Cloudy
1:07 AM 69.8 °F 66.2 °F 88% 29.99 in 10.0 mi SE 6.9 mph - N/A Rain Light Rain
1:30 AM 71.6 °F 66.2 °F 83% 29.98 in 10.0 mi SE 11.5 mph - N/A   Scattered Clouds
1:34 AM 69.8 °F 66.2 °F 88% 29.98 in 10.0 mi SE 10.4 mph - N/A Rain Light Rain
1:55 AM 70.7 °F 67.1 °F 88% 29.94 in 10.0 mi SE 19.6 mph - 0.00 in Rain Light Rain
2:03 AM 69.8 °F 66.2 °F 88% 29.94 in 10.0 mi SE 13.8 mph 18.4 mph N/A   Partly Cloudy
2:55 AM 71.1 °F 67.1 °F 87% 29.91 in 10.0 mi ESE 19.6 mph 34.5 mph 0.00 in   Mostly Cloudy
3:55 AM 71.4 °F 68.4 °F 90% 29.92 in 10.0 mi SE 15.0 mph - N/A   Mostly Cloudy
4:55 AM 70.9 °F 67.1 °F 88% 29.90 in 10.0 mi SE 16.1 mph 20.7 mph N/A   Overcast
5:55 AM 70.3 °F 68.5 °F 94% 29.90 in 10.0 mi SE 13.8 mph 20.7 mph N/A   Overcast
6:22 AM 71.6 °F 69.8 °F 94% 29.90 in 10.0 mi SE 18.4 mph 25.3 mph N/A   Overcast
6:26 AM 71.6 °F 69.8 °F 94% 29.90 in 10.0 mi SE 20.7 mph 28.8 mph N/A   Overcast
6:27 AM 71.6 °F 69.8 °F 94% 29.91 in 10.0 mi SE 19.6 mph 28.8 mph N/A Rain Light Rain
6:30 AM 69.8 °F 69.8 °F 100% 29.91 in 10.0 mi SE 17.3 mph 28.8 mph N/A Rain Light Rain
6:37 AM 69.8 °F 69.8 °F 100% 29.91 in 7.0 mi SE 17.3 mph 25.3 mph N/A Rain Light Rain
6:42 AM 69.8 °F 69.8 °F 100% 29.91 in 4.0 mi SE 15.0 mph - N/A Rain Rain
6:43 AM 69.8 °F 69.8 °F 100% 29.91 in 3.0 mi SE 15.0 mph - N/A Rain Rain
6:45 AM 69.8 °F 69.8 °F 100% 29.92 in 3.0 mi SE 13.8 mph - N/A Rain Light Rain
6:55 AM 69.4 °F 69.1 °F 99% 29.92 in 4.0 mi SE 16.1 mph 23.0 mph 0.08 in Rain Light Rain
6:58 AM 69.8 °F 69.8 °F 100% 29.92 in 2.5 mi SE 15.0 mph 23.0 mph N/A Rain Heavy Rain
7:01 AM 69.8 °F 69.8 °F 100% 29.92 in 2.0 mi SE 13.8 mph - N/A Rain Heavy Rain
7:02 AM 69.8 °F 69.8 °F 100% 29.93 in 1.8 mi SE 13.8 mph - N/A Rain Heavy Rain
7:04 AM 69.8 °F 69.8 °F 100% 29.92 in 1.5 mi SE 15.0 mph - N/A Rain Heavy Rain
7:12 AM 69.8 °F 69.8 °F 100% 29.92 in 1.8 mi SE 13.8 mph - N/A Rain Light Rain
7:14 AM 69.8 °F 69.8 °F 100% 29.93 in 2.0 mi SSE 13.8 mph - N/A Rain Light Rain
7:18 AM 69.8 °F 69.8 °F 100% 29.93 in 3.0 mi SE 12.7 mph - N/A Rain Light Rain
7:55 AM 69.6 °F 69.6 °F 100% 29.94 in 4.0 mi SSE 9.2 mph - 0.33 in Rain Rain
8:00 AM 69.8 °F 69.8 °F 100% 29.94 in 3.0 mi SSE 9.2 mph - N/A Rain Rain
8:08 AM 69.8 °F 69.8 °F 100% 29.94 in 3.0 mi South 11.5 mph - N/A Rain Rain
8:10 AM 69.8 °F 69.8 °F 100% 29.95 in 3.0 mi South 12.7 mph - N/A Rain Rain
8:16 AM 69.8 °F 69.8 °F 100% 29.95 in 4.0 mi SSW 9.2 mph - N/A Rain Rain
8:23 AM 69.8 °F 69.8 °F 100% 29.96 in 2.5 mi SSW 12.7 mph - N/A Rain Heavy Rain
8:25 AM 69.8 °F 69.8 °F 100% 29.96 in 1.5 mi SW 13.8 mph - N/A Rain Heavy Rain
8:26 AM 69.8 °F 69.8 °F 100% 29.97 in 1.2 mi SW 12.7 mph - N/A Rain Heavy Rain
8:27 AM 69.8 °F 69.8 °F 100% 29.98 in 1.0 mi WSW 15.0 mph - N/A Rain Heavy Rain
8:32 AM 69.8 °F 69.8 °F 100% 29.98 in 1.0 mi West 16.1 mph - N/A Rain Heavy Rain
8:33 AM 69.8 °F 69.8 °F 100% 29.98 in 1.0 mi West 16.1 mph - N/A Rain Heavy Rain
8:34 AM 69.8 °F 69.8 °F 100% 29.98 in 1.0 mi West 15.0 mph - N/A Rain Heavy Rain
8:35 AM 69.8 °F 69.8 °F 100% 29.97 in 1.2 mi West 15.0 mph - N/A Rain Heavy Rain
8:36 AM 68.0 °F 68.0 °F 100% 29.97 in 1.5 mi WSW 16.1 mph - N/A Rain Heavy Rain
8:37 AM 68.0 °F 68.0 °F 100% 29.98 in 1.8 mi WSW 16.1 mph - N/A Rain Rain
8:38 AM 68.0 °F 68.0 °F 100% 29.98 in 2.0 mi SW 16.1 mph - N/A Rain Rain
8:41 AM 68.0 °F 68.0 °F 100% 29.98 in 3.0 mi SW 15.0 mph - N/A Rain Light Rain
8:55 AM 68.0 °F 68.0 °F 100% 29.99 in 5.0 mi SW 13.8 mph - 0.43 in Rain Rain
8:58 AM 68.0 °F 68.0 °F 100% 29.99 in 5.0 mi SSW 13.8 mph - N/A Rain Light Rain
9:55 AM 69.1 °F 69.1 °F 100% 29.98 in 10.0 mi South 4.6 mph - 0.06 in Rain Light Rain
10:17 AM 69.8 °F 69.8 °F 100% 29.98 in 10.0 mi South 5.8 mph - N/A   Clear
10:55 AM 70.5 °F 70.5 °F 100% 29.97 in 10.0 mi SW 5.8 mph - 0.00 in   Partly Cloudy
11:55 AM 72.1 °F 72.1 °F 100% 29.94 in 10.0 mi SSW 6.9 mph - N/A   Mostly Cloudy
12:44 PM 73.4 °F 73.4 °F 100% 29.92 in 10.0 mi SSW 10.4 mph - N/A   Mostly Cloudy
12:52 PM 73.4 °F 73.4 °F 100% 29.92 in 10.0 mi SSW 10.4 mph - N/A   Mostly Cloudy
12:55 PM 74.5 °F 74.3 °F 99% 29.92 in 10.0 mi SW 9.2 mph - N/A   Mostly Cloudy
12:58 PM 75.2 °F 75.2 °F 100% 29.92 in 10.0 mi SW 11.5 mph - N/A   Mostly Cloudy
1:02 PM 75.2 °F 73.4 °F 94% 29.92 in 10.0 mi SW 11.5 mph - N/A   Mostly Cloudy
1:11 PM 75.2 °F 75.2 °F 100% 29.91 in 10.0 mi SW 11.5 mph - N/A   Mostly Cloudy
1:55 PM 75.7 °F 72.1 °F 89% 29.90 in 10.0 mi WSW 12.7 mph - N/A   Scattered Clouds
2:23 PM 75.2 °F 71.6 °F 89% 29.89 in 5.0 mi West 18.4 mph 23.0 mph N/A Rain Heavy Rain
2:26 PM 73.4 °F 71.6 °F 94% 29.89 in 4.0 mi West 13.8 mph 23.0 mph N/A Rain Light Rain
2:33 PM 71.6 °F 71.6 °F 100% 29.90 in 4.0 mi West 10.4 mph - N/A Rain Light Rain
2:39 PM 71.6 °F 71.6 °F 100% 29.90 in 10.0 mi WSW 9.2 mph - N/A   Mostly Cloudy
2:45 PM 71.6 °F 71.6 °F 100% 29.90 in 10.0 mi West 11.5 mph - N/A   Mostly Cloudy
2:52 PM 71.6 °F 71.6 °F 100% 29.90 in 10.0 mi West 13.8 mph - N/A   Mostly Cloudy
2:53 PM 71.6 °F 71.6 °F 100% 29.90 in 10.0 mi West 12.7 mph - N/A   Mostly Cloudy
2:55 PM 72.3 °F 72.0 °F 99% 29.90 in 10.0 mi West 11.5 mph - 0.02 in Rain Light Rain
3:07 PM 71.6 °F 71.6 °F 100% 29.89 in 10.0 mi West 10.4 mph - N/A   Overcast
3:39 PM 73.4 °F 71.6 °F 94% 29.89 in 10.0 mi WNW 11.5 mph 18.4 mph N/A   Mostly Cloudy
3:40 PM 73.4 °F 71.6 °F 94% 29.89 in 10.0 mi WNW 10.4 mph 18.4 mph N/A   Mostly Cloudy
3:55 PM 72.5 °F 72.1 °F 99% 29.90 in 10.0 mi NW 16.1 mph 24.2 mph 0.00 in   Mostly Cloudy
4:08 PM 71.6 °F 71.6 °F 100% 29.91 in 10.0 mi NW 12.7 mph 25.3 mph N/A   Mostly Cloudy
4:46 PM 71.6 °F 69.8 °F 94% 29.92 in 10.0 mi NW 11.5 mph 18.4 mph N/A   Mostly Cloudy
4:47 PM 71.6 °F 69.8 °F 94% 29.92 in 10.0 mi NW 12.7 mph 18.4 mph N/A   Mostly Cloudy
4:55 PM 71.4 °F 68.9 °F 92% 29.93 in 10.0 mi NW 12.7 mph - N/A   Mostly Cloudy
5:35 PM 71.6 °F 68.0 °F 88% 29.94 in 10.0 mi NW 12.7 mph - N/A   Overcast
5:55 PM 70.9 °F 67.6 °F 89% 29.94 in 10.0 mi NNW 11.5 mph - N/A   Overcast
6:36 PM 69.8 °F 68.0 °F 94% 29.97 in 10.0 mi NNW 12.7 mph 19.6 mph N/A   Overcast
6:55 PM 69.6 °F 67.6 °F 93% 29.97 in 10.0 mi NNW 11.5 mph 17.3 mph N/A   Overcast
7:06 PM 69.8 °F 66.2 °F 88% 29.97 in 10.0 mi NNW 12.7 mph - N/A   Mostly Cloudy
7:55 PM 69.4 °F 64.8 °F 85% 29.99 in 10.0 mi NNW 9.2 mph - N/A   Clear
8:55 PM 68.7 °F 65.1 °F 88% 30.01 in 10.0 mi NNW 10.4 mph - N/A   Scattered Clouds
9:55 PM 68.5 °F 64.9 °F 88% 30.01 in 10.0 mi North 9.2 mph - N/A   Mostly Cloudy
10:55 PM 67.8 °F 62.2 °F 82% 30.02 in 10.0 mi North 11.5 mph - N/A   Scattered Clouds
11:55 PM 67.5 °F 61.2 °F 80% 30.01 in 10.0 mi North 9.2 mph - N/A   Partly Cloudy